Regional Weather Roundup
Issued by NWS Wilmington, NC

Home | Current Version | Previous Version | Text Only | Print | Product List | Glossary On
Versions: 1 2 3 4 5 6 7 8 9 10 11 12 13 14 15 16 17 18 19 20 21 22 23 24 25 26 27 28 29 30 31 32 33 34 35 36 37 38 39 40 41 42 43 44 45 46 47 48 49 50
000
ASUS42 KILM 240313
RWRILM
RWRILM
REGIONAL HOURLY WEATHER ROUNDUP
NATIONAL WEATHER SERVICE WILMINGTON NC
1100 PM EDT SAT MAY 23 2015

NOTE: "FAIR" INDICATES FEW OR NO CLOUDS BELOW 12,000 FEET WITH NO
SIGNIFICANT WEATHER AND/OR OBSTRUCTIONS TO VISIBILITY.

...............WFO WILMINGTON COUNTY WARNING AREA...............

......COASTAL NC AND SC COUNTIES......

CITY           SKY/WX    TMP DP  RH WIND       PRES   REMARKS
WILMINGTON     CLEAR     63  59  87 NE3       30.39R
N MYRTLE BEACH CLEAR     73  59  61 SE5       30.37S
MYRTLE BEACH   CLEAR     72  59  64 E12       30.39S

......INLAND NC AND SC COUNTIES.......

CITY           SKY/WX    TMP DP  RH WIND       PRES   REMARKS
LUMBERTON      CLEAR     60  55  83 CALM      30.38R
ELIZABETHTOWN  CLEAR     64  53  65 CALM      30.39R
WHITEVILLE     CLEAR     61  54  78 CALM      30.38R
FLORENCE       CLEAR     65  55  70 S6        30.37S
DARLINGTON     CLEAR     66  50  55 SE6       30.39R

....................REST OF NORTH CAROLINA......................

.........EASTERN NC.........

CITY           SKY/WX    TMP DP  RH WIND       PRES   REMARKS
CAPE HATTERAS  CLEAR     60  56  86 NE6       30.42S
JACKSONVILLE   CLEAR     63  54  72 E3        30.40F
MOREHEAD CITY  CLEAR     65  56  72 E3        30.40F
KENANSVILLE    CLEAR     61  55  79 CALM      30.41S
NEW BERN       CLEAR     66  53  63 E6        30.42S
ELIZABETH CITY CLEAR     59  51  75 E5        30.42S

.........CENTRAL NC.........

CITY           SKY/WX    TMP DP  RH WIND       PRES   REMARKS
RALEIGH DURHAM PTCLDY    59  51  75 CALM      30.39R
ROCKY MOUNT    CLEAR     65  55  70 SE3       30.40R
ROANOKE RAPIDS NOT AVBL
FAYETTEVILLE   CLEAR     67  48  50 SE5       30.38R
HOFFMAN        CLEAR     67  51  57 S7        30.41R

.........WESTERN NC.........

CITY           SKY/WX    TMP DP  RH WIND       PRES   REMARKS
CHARLOTTE      FAIR      71  42  35 SE9       30.36R
GREENSBORO     PTCLDY    66  47  50 S7        30.37R
HICKORY        NOT AVBL
BOONE          NOT AVBL
ASHEVILLE      NOT AVBL

.....................REST OF SOUTH CAROLINA.....................

.........EASTERN SC.........

CITY           SKY/WX    TMP DP  RH WIND       PRES   REMARKS
CHARLESTON     CLEAR     68  61  78 NE7       30.35S
BEAUFORT MCAS  CLOUDY    73  62  68 E7        30.34R
HILTON HEAD    PTCLDY    75  63  64 NE9       30.34S

.........CENTRAL SC.........

CITY           SKY/WX    TMP DP  RH WIND       PRES   REMARKS
COLUMBIA       CLEAR     69  50  50 SE5       30.35R
ORANGEBURG     CLEAR     68  56  65 SE5       30.36R
SUMTER SHAW    CLEAR     66  53  63 SE5       30.35R

.........WESTERN SC.........

CITY           SKY/WX    TMP DP  RH WIND       PRES   REMARKS
GREENVILLE     NOT AVBL
ROCK HILL      CLEAR     66  46  48 SE3       30.37R
ANDERSON       CLEAR     64  49  57 E3        30.34R
CLEMSON        NOT AVBL
GREENWOOD      CLEAR     61  50  67 CALM      30.36R


...................COASTAL AND OFFSHORE REPORTS..................

................LOCAL PIERS AND NC RESERVE................


STATION/POSITION TIME  SKY/WX   TEMP    WIND        PRES    VSBY
                                AIR SEA DIR/SP/G
                 (UTC)          (F)     (DEG/KT/KT) (MB)    (MI)
JOHNY MRCER PIER 0200            73 78  110/ 12/ 15 1028.2R
NC RESRV MASNBRO NOT AVBL
OCEAN CREST PIER 0302            73 76   40/ 10/ 12 1027.9F
SPRINGMAID  PIER 0200            73 76   70/ 13/ 15 1028.5R


................COASTAL AND OFFSHORE BUOYS................


STATION/POSITION TIME  SKY/WX   TEMP    WIND        PRES    VSBY
                                AIR SEA DIR/SP/G
                 (UTC)          (F)     (DEG/KT/KT) (MB)    (MI)
DIMNDSHOAL 41025 0250            71 78   50/  8/ 12 1029.7R
WVE H/P(F/S)=  3/ 7 WND WVE H/P(F/S)=  2/ 4 SWL H/P/D(F/S/D)=  3/ 40/ 7

CAPE LOOKOUT     0300            70      60/ 11/ 12 1029.2S
ONSLOW BAY 41036 NOT AVBL
5 WRITEBCH 41038 NOT AVBL
MASONBORO  41110 0219               76                N/A
WVE H/P(F/S)=  3/ 5 WND WVE H/P(F/S)=  3/ 5

WILM HARBR 41108 0211               75                N/A
WVE H/P(F/S)=  3/ 6 WND WVE H/P(F/S)=  3/ 6

27WRITEBCH 41037 NOT AVBL
FRYING PAN 41013 0250            75 74  110/ 14/ 16 1029.0R
WVE H/P(F/S)=  4/ 6 WND WVE H/P(F/S)=  3/ 6 SWL H/P/D(F/S/D)=  2/ 90/ 8

SUNST NRSH 41024 0208            73     120/ 12/ 16 1028.3R
CAPRS NRSH 41029 0208            75     100/ 16/ 19 1027.7R
EDISTO     41004 0250            75 75   90/ 17/ 19 1027.0R
WVE H/P(F/S)=  5/ 5 WND WVE H/P(F/S)=  5/ 5 SWL H/P/D(F/S/D)=  2/11



..........OFFSHORE BUOYS BEYOND 100 NM OFFSHORE...........
.....IN A TRIANGLE---HAT TO BERMUDA TO BAHAMAS TO HAT.....


STATION/POSITION TIME  SKY/WX   TEMP    WIND        PRES    VSBY
                                AIR SEA DIR/SP/G
                 (UTC)          (F)     (DEG/KT/KT) (MB)    (MI)
150E HAT   41001 NOT AVBL
W BERMUDA  41048 0250            72 74   50/ 17/ 23 1026.5F
WVE H/P(F/S)=  5/ 5 WND WVE H/P(F/S)=  5/ 5 SWL H/P/D(F/S/D)=  2/ 20/ 9

ATLANTIC S 41049 0250            75 78   40/  8/ 10 1024.9S
WVE H/P(F/S)=  2/ 6 WND WVE H/P(F/S)=  2/ 3 SWL H/P/D(F/S/D)=  2/300/ 6

E BAHAMAS  41046 0250            80 81   90/ 14/ 17 1022.5F
WVE H/P(F/S)=  4/ 6 WND WVE H/P(F/S)=  3/ 6 SWL H/P/D(F/S/D)=  2/ 70/ 9

NE BAHAMAS 41047 0250            78 79   90/ 12/ 14 1023.6R
WVE H/P(F/S)=  4/ 8 WND WVE H/P(F/S)=  2/ 6 SWL H/P/D(F/S/D)=  3/340/ 8

120E CANVRL41010 0220            78 80   60/ 19/ 23 1023.9R

END



USA.gov is the U.S. government's official web portal to all federal, state and local government web resources and services.